Time,TemperatureF,DewpointF,PressureIn,WindDirection,WindDirectionDegrees,WindSpeedMPH,WindSpeedGustMPH,Humidity,HourlyPrecipIn,Conditions,Clouds,dailyrainin,SoftwareType,DateUTC
2013-02-01 00:03:00,46.6,31.3,30.28,WSW,244,1.2,1.2,55,0.00,CLR,,0.00,WeatherDisplay:10.37,2013-02-01 06:03:00,
2013-02-01 00:08:00,47.0,31.2,30.28,WSW,244,0.0,0.0,54,0.00,CLR,,0.00,WeatherDisplay:10.37,2013-02-01 06:08:00,
2013-02-01 00:13:00,47.3,31.5,30.28,WSW,244,1.2,0.0,54,0.00,CLR,,0.00,WeatherDisplay:10.37,2013-02-01 06:13:00,
2013-02-01 00:18:00,47.6,31.8,30.28,WSW,244,1.2,0.0,54,0.00,CLR,,0.00,WeatherDisplay:10.37,2013-02-01 06:18:00,
2013-02-01 00:23:00,47.8,31.9,30.28,WSW,244,0.0,0.0,54,0.00,CLR,,0.00,WeatherDisplay:10.37,2013-02-01 06:23:00,
2013-02-01 00:28:00,48.1,32.2,30.28,WSW,244,1.2,0.0,54,0.00,CLR,,0.00,WeatherDisplay:10.37,2013-02-01 06:28:00,
2013-02-01 00:33:00,48.2,32.8,30.27,WSW,244,0.0,0.0,55,0.00,CLR,,0.00,WeatherDisplay:10.37,2013-02-01 06:33:00,
2013-02-01 00:38:00,48.4,32.5,30.27,WSW,244,0.0,0.0,54,0.00,CLR,,0.00,WeatherDisplay:10.37,2013-02-01 06:38:00,
2013-02-01 00:43:00,48.6,33.1,30.28,WSW,244,0.0,0.0,55,0.00,CLR,,0.00,WeatherDisplay:10.37,2013-02-01 06:43:00,
2013-02-01 00:48:00,48.7,33.2,30.27,WSW,244,0.0,0.0,55,0.00,CLR,,0.00,WeatherDisplay:10.37,2013-02-01 06:48:00,
2013-02-01 00:53:00,48.9,33.9,30.27,WSW,244,0.0,0.0,56,0.00,CLR,,0.00,WeatherDisplay:10.37,2013-02-01 06:53:00,
2013-02-01 00:58:00,49.0,34.0,30.27,WSW,244,0.0,0.0,56,0.00,CLR,,0.00,WeatherDisplay:10.37,2013-02-01 06:58:00,
2013-02-01 01:03:00,49.1,33.6,30.27,WSW,244,0.0,0.0,55,0.00,CLR,,0.00,WeatherDisplay:10.37,2013-02-01 07:03:00,
2013-02-01 01:08:00,49.2,33.7,30.27,WSW,244,0.0,0.0,55,0.00,CLR,,0.00,WeatherDisplay:10.37,2013-02-01 07:08:00,
2013-02-01 01:13:00,49.3,34.3,30.27,WSW,244,1.2,1.2,56,0.00,CLR,,0.00,WeatherDisplay:10.37,2013-02-01 07:13:00,
2013-02-01 01:18:00,49.4,34.3,30.27,WSW,244,1.2,0.0,56,0.00,CLR,,0.00,WeatherDisplay:10.37,2013-02-01 07:18:00,
2013-02-01 01:23:00,49.4,34.3,30.27,WSW,244,0.0,0.0,56,0.00,CLR,,0.00,WeatherDisplay:10.37,2013-02-01 07:23:00,
2013-02-01 01:28:00,49.4,34.3,30.27,WSW,244,0.0,0.0,56,0.00,CLR,,0.00,WeatherDisplay:10.37,2013-02-01 07:28:00,
2013-02-01 01:33:00,49.4,34.8,30.27,WSW,244,0.0,0.0,57,0.00,CLR,,0.00,WeatherDisplay:10.37,2013-02-01 07:33:00,
2013-02-01 01:38:00,49.4,34.8,30.27,WSW,244,0.0,0.0,57,0.00,CLR,,0.00,WeatherDisplay:10.37,2013-02-01 07:38:00,
2013-02-01 01:43:00,49.4,35.2,30.27,WSW,244,0.0,0.0,58,0.00,CLR,,0.00,WeatherDisplay:10.37,2013-02-01 07:43:00,
2013-02-01 01:48:00,49.3,35.1,30.27,WSW,244,0.0,0.0,58,0.00,CLR,,0.00,WeatherDisplay:10.37,2013-02-01 07:48:00,
2013-02-01 01:53:00,49.4,35.7,30.27,WSW,244,0.0,0.0,59,0.00,CLR,,0.00,WeatherDisplay:10.37,2013-02-01 07:53:00,
2013-02-01 01:58:00,49.4,35.7,30.27,WSW,244,0.0,0.0,59,0.00,CLR,,0.00,WeatherDisplay:10.37,2013-02-01 07:58:00,
2013-02-01 02:03:00,49.4,35.7,30.28,WSW,244,0.0,0.0,59,0.00,CLR,,0.00,WeatherDisplay:10.37,2013-02-01 08:03:00,
2013-02-01 02:08:00,49.4,36.1,30.28,WSW,244,0.0,0.0,60,0.00,CLR,,0.00,WeatherDisplay:10.37,2013-02-01 08:08:00,
2013-02-01 02:13:00,49.4,36.1,30.27,WSW,244,0.0,0.0,60,0.00,CLR,,0.00,WeatherDisplay:10.37,2013-02-01 08:13:00,
2013-02-01 02:18:00,49.4,36.1,30.27,WSW,244,0.0,0.0,60,0.00,CLR,,0.00,WeatherDisplay:10.37,2013-02-01 08:18:00,
2013-02-01 02:23:00,49.3,36.0,30.27,WSW,244,0.0,0.0,60,0.00,CLR,,0.00,WeatherDisplay:10.37,2013-02-01 08:23:00,
2013-02-01 02:28:00,49.2,36.3,30.27,WSW,244,0.0,0.0,61,0.00,CLR,,0.00,WeatherDisplay:10.37,2013-02-01 08:28:00,
2013-02-01 02:33:00,49.1,36.2,30.27,WSW,244,0.0,0.0,61,0.00,CLR,,0.00,WeatherDisplay:10.37,2013-02-01 08:33:00,
2013-02-01 02:38:00,49.1,36.2,30.27,WSW,244,0.0,0.0,61,0.00,CLR,,0.00,WeatherDisplay:10.37,2013-02-01 08:38:00,
2013-02-01 02:43:00,49.0,36.5,30.27,WSW,244,0.0,0.0,62,0.00,CLR,,0.00,WeatherDisplay:10.37,2013-02-01 08:43:00,
2013-02-01 02:48:00,48.9,36.4,30.28,WSW,244,0.0,0.0,62,0.00,CLR,,0.00,WeatherDisplay:10.37,2013-02-01 08:48:00,
2013-02-01 02:53:00,48.8,36.8,30.27,WSW,244,0.0,0.0,63,0.00,CLR,,0.00,WeatherDisplay:10.37,2013-02-01 08:53:00,
2013-02-01 02:58:00,48.8,36.8,30.27,WSW,244,0.0,0.0,63,0.00,CLR,,0.00,WeatherDisplay:10.37,2013-02-01 08:58:00,
2013-02-01 03:03:00,48.9,36.9,30.27,WSW,244,0.0,0.0,63,0.00,CLR,,0.00,WeatherDisplay:10.37,2013-02-01 09:03:00,
2013-02-01 03:08:00,49.0,36.9,30.27,WSW,244,0.0,0.0,63,0.00,CLR,,0.00,WeatherDisplay:10.37,2013-02-01 09:08:00,
2013-02-01 03:13:00,49.2,37.5,30.28,WSW,244,0.0,0.0,64,0.00,CLR,,0.00,WeatherDisplay:10.37,2013-02-01 09:13:00,
2013-02-01 03:18:00,49.3,37.2,30.28,WSW,244,0.0,0.0,63,0.00,CLR,,0.00,WeatherDisplay:10.37,2013-02-01 09:18:00,
2013-02-01 03:23:00,49.4,37.3,30.27,WSW,244,0.0,0.0,63,0.00,CLR,,0.00,WeatherDisplay:10.37,2013-02-01 09:23:00,
2013-02-01 03:28:00,49.4,37.3,30.28,WSW,244,0.0,0.0,63,0.00,CLR,,0.00,WeatherDisplay:10.37,2013-02-01 09:28:00,
2013-02-01 03:33:00,49.4,37.7,30.27,WSW,244,0.0,0.0,64,0.00,CLR,,0.00,WeatherDisplay:10.37,2013-02-01 09:33:00,
2013-02-01 03:38:00,49.4,37.7,30.27,WSW,244,0.0,0.0,64,0.00,CLR,,0.00,WeatherDisplay:10.37,2013-02-01 09:38:00,
2013-02-01 03:43:00,49.3,37.6,30.28,WSW,244,0.0,0.0,64,0.00,CLR,,0.00,WeatherDisplay:10.37,2013-02-01 09:43:00,
2013-02-01 03:48:00,49.2,37.5,30.28,WSW,244,0.0,0.0,64,0.00,CLR,,0.00,WeatherDisplay:10.37,2013-02-01 09:48:00,
2013-02-01 03:53:00,49.2,37.5,30.28,WSW,244,0.0,0.0,64,0.00,CLR,,0.00,WeatherDisplay:10.37,2013-02-01 09:53:00,
2013-02-01 03:58:00,49.2,37.5,30.28,WSW,244,0.0,0.0,64,0.00,CLR,,0.00,WeatherDisplay:10.37,2013-02-01 09:58:00,
2013-02-01 04:03:00,49.2,37.5,30.28,WSW,244,0.0,0.0,64,0.00,CLR,,0.00,WeatherDisplay:10.37,2013-02-01 10:03:00,
2013-02-01 04:08:00,49.1,37.4,30.28,WSW,244,0.0,0.0,64,0.00,CLR,,0.00,WeatherDisplay:10.37,2013-02-01 10:08:00,
2013-02-01 04:13:00,49.0,37.3,30.28,WSW,244,0.0,0.0,64,0.00,CLR,,0.00,WeatherDisplay:10.37,2013-02-01 10:13:00,
2013-02-01 04:18:00,48.9,37.3,30.28,WSW,244,0.0,0.0,64,0.00,CLR,,0.00,WeatherDisplay:10.37,2013-02-01 10:18:00,
2013-02-01 04:23:00,48.7,37.5,30.28,WSW,244,0.0,0.0,65,0.00,CLR,,0.00,WeatherDisplay:10.37,2013-02-01 10:23:00,
2013-02-01 04:28:00,48.6,37.0,30.29,WSW,244,0.0,0.0,64,0.00,CLR,,0.00,WeatherDisplay:10.37,2013-02-01 10:28:00,
2013-02-01 04:33:00,48.4,37.2,30.29,WSW,244,0.0,0.0,65,0.00,CLR,,0.00,WeatherDisplay:10.37,2013-02-01 10:33:00,
2013-02-01 04:38:00,48.2,37.4,30.29,WSW,244,1.2,1.2,66,0.00,CLR,,0.00,WeatherDisplay:10.37,2013-02-01 10:38:00,
2013-02-01 04:43:00,48.1,36.9,30.29,WSW,244,1.2,0.0,65,0.00,CLR,,0.00,WeatherDisplay:10.37,2013-02-01 10:43:00,
2013-02-01 04:48:00,47.9,36.3,30.29,WSW,244,0.0,0.0,64,0.00,CLR,,0.00,WeatherDisplay:10.37,2013-02-01 10:48:00,
2013-02-01 04:53:00,47.7,36.1,30.28,WSW,244,0.0,0.0,64,0.00,CLR,,0.00,WeatherDisplay:10.37,2013-02-01 10:53:00,
2013-02-01 04:58:00,47.4,35.8,30.28,WSW,244,0.0,0.0,64,0.00,CLR,,0.00,WeatherDisplay:10.37,2013-02-01 10:58:00,
2013-02-01 05:03:00,47.2,35.6,30.28,WSW,244,0.0,0.0,64,0.00,CLR,,0.00,WeatherDisplay:10.37,2013-02-01 11:03:00,
2013-02-01 05:08:00,47.0,35.4,30.28,WSW,244,0.0,0.0,64,0.00,CLR,,0.00,WeatherDisplay:10.37,2013-02-01 11:08:00,
2013-02-01 05:13:00,46.8,35.3,30.28,WSW,244,0.0,0.0,64,0.00,CLR,,0.00,WeatherDisplay:10.37,2013-02-01 11:13:00,
2013-02-01 05:18:00,46.5,35.0,30.28,WSW,244,0.0,0.0,64,0.00,CLR,,0.00,WeatherDisplay:10.37,2013-02-01 11:18:00,
2013-02-01 05:23:00,46.3,35.2,30.28,WSW,244,0.0,0.0,65,0.00,CLR,,0.00,WeatherDisplay:10.37,2013-02-01 11:23:00,
2013-02-01 05:28:00,46.1,35.0,30.28,WSW,244,0.0,0.0,65,0.00,CLR,,0.00,WeatherDisplay:10.37,2013-02-01 11:28:00,
2013-02-01 05:33:00,46.0,35.3,30.28,WSW,244,0.0,0.0,66,0.00,CLR,,0.00,WeatherDisplay:10.37,2013-02-01 11:33:00,
2013-02-01 05:38:00,45.9,35.6,30.27,WSW,244,0.0,0.0,67,0.00,CLR,,0.00,WeatherDisplay:10.37,2013-02-01 11:38:00,
2013-02-01 05:43:00,45.7,35.4,30.27,WSW,244,0.0,0.0,67,0.00,CLR,,0.00,WeatherDisplay:10.37,2013-02-01 11:43:00,
2013-02-01 05:48:00,45.6,35.3,30.27,WSW,244,0.0,0.0,67,0.00,CLR,,0.00,WeatherDisplay:10.37,2013-02-01 11:48:00,
2013-02-01 05:53:00,45.5,35.5,30.28,WSW,244,0.0,0.0,68,0.00,CLR,,0.00,WeatherDisplay:10.37,2013-02-01 11:53:00,
2013-02-01 05:58:00,45.4,35.5,30.28,WSW,244,0.0,0.0,68,0.00,CLR,,0.00,WeatherDisplay:10.37,2013-02-01 11:58:00,
2013-02-01 06:03:00,45.4,35.5,30.27,WSW,244,0.0,0.0,68,0.00,CLR,,0.00,WeatherDisplay:10.37,2013-02-01 12:03:00,
2013-02-01 06:08:00,45.4,35.5,30.28,WSW,244,0.0,0.0,68,0.00,CLR,,0.00,WeatherDisplay:10.37,2013-02-01 12:08:00,
2013-02-01 06:13:00,45.3,35.4,30.28,WSW,244,0.0,0.1,68,0.00,CLR,,0.00,WeatherDisplay:10.37,2013-02-01 12:13:00,
2013-02-01 06:18:00,45.1,34.8,30.28,WSW,244,1.2,0.0,67,0.00,CLR,,0.00,WeatherDisplay:10.37,2013-02-01 12:18:00,
2013-02-01 06:23:00,44.9,34.6,30.28,WSW,244,1.2,1.2,67,0.00,CLR,,0.00,WeatherDisplay:10.37,2013-02-01 12:23:00,
2013-02-01 06:28:00,44.7,34.4,30.28,WSW,244,0.0,0.0,67,0.00,CLR,,0.00,WeatherDisplay:10.37,2013-02-01 12:28:00,
2013-02-01 06:33:00,44.4,34.1,30.29,WSW,244,0.0,0.0,67,0.00,CLR,,0.00,WeatherDisplay:10.37,2013-02-01 12:33:00,
2013-02-01 06:38:00,44.2,33.9,30.29,WSW,244,0.0,0.0,67,0.00,CLR,,0.00,WeatherDisplay:10.37,2013-02-01 12:38:00,
2013-02-01 06:43:00,43.9,34.0,30.29,WSW,244,0.0,0.0,68,0.00,CLR,,0.00,WeatherDisplay:10.37,2013-02-01 12:43:00,
2013-02-01 06:48:00,43.7,33.8,30.29,WSW,244,0.0,0.0,68,0.00,CLR,,0.00,WeatherDisplay:10.37,2013-02-01 12:48:00,
2013-02-01 06:53:00,43.4,33.9,30.30,WSW,244,1.2,1.2,69,0.00,CLR,,0.00,WeatherDisplay:10.37,2013-02-01 12:53:00,
2013-02-01 06:58:00,43.2,33.7,30.30,WSW,244,2.3,2.3,69,0.00,CLR,,0.00,WeatherDisplay:10.37,2013-02-01 12:58:00,
2013-02-01 07:03:00,42.9,33.4,30.31,West,259,3.5,3.5,69,0.00,CLR,,0.00,WeatherDisplay:10.37,2013-02-01 13:03:00,
2013-02-01 07:08:00,42.6,33.1,30.31,West,263,3.5,3.5,69,0.00,CLR,,0.00,WeatherDisplay:10.37,2013-02-01 13:08:00,
2013-02-01 07:13:00,42.2,33.1,30.31,West,265,3.5,3.5,70,0.00,CLR,,0.00,WeatherDisplay:10.37,2013-02-01 13:13:00,
2013-02-01 07:18:00,41.9,33.2,30.31,West,267,2.3,2.3,71,0.00,CLR,,0.00,WeatherDisplay:10.37,2013-02-01 13:18:00,
2013-02-01 07:23:00,41.6,33.2,30.32,West,267,2.3,2.3,72,0.00,CLR,,0.00,WeatherDisplay:10.37,2013-02-01 13:23:00,
2013-02-01 07:28:00,41.5,33.5,30.32,West,268,0.0,0.0,73,0.00,CLR,,0.00,WeatherDisplay:10.37,2013-02-01 13:28:00,
2013-02-01 07:33:00,41.4,35.1,30.32,West,268,1.2,1.2,78,0.00,CLR,,0.00,WeatherDisplay:10.37,2013-02-01 13:33:00,
2013-02-01 07:38:00,41.4,34.1,30.31,West,268,0.0,0.0,75,0.00,CLR,,0.00,WeatherDisplay:10.37,2013-02-01 13:38:00,
2013-02-01 07:43:00,41.4,34.4,30.31,West,268,0.0,0.0,76,0.00,CLR,,0.00,WeatherDisplay:10.37,2013-02-01 13:43:00,
2013-02-01 07:48:00,41.5,34.5,30.32,West,268,0.0,0.0,76,0.00,CLR,,0.00,WeatherDisplay:10.37,2013-02-01 13:48:00,
2013-02-01 07:53:00,41.6,34.6,30.32,West,268,0.0,0.0,76,0.00,CLR,,0.00,WeatherDisplay:10.37,2013-02-01 13:53:00,
2013-02-01 07:58:00,41.7,34.7,30.32,West,268,0.0,0.0,76,0.00,CLR,,0.00,WeatherDisplay:10.37,2013-02-01 13:58:00,
2013-02-01 08:03:00,42.0,35.0,30.32,West,268,0.0,0.0,76,0.00,CLR,,0.00,WeatherDisplay:10.37,2013-02-01 14:03:00,
2013-02-01 08:08:00,42.4,35.4,30.32,West,268,0.0,0.0,76,0.00,CLR,,0.00,WeatherDisplay:10.37,2013-02-01 14:08:00,
2013-02-01 08:13:00,42.8,35.8,30.32,West,268,0.0,0.0,76,0.00,CLR,,0.00,WeatherDisplay:10.37,2013-02-01 14:13:00,
2013-02-01 08:18:00,43.3,36.2,30.32,West,268,0.0,0.0,76,0.00,CLR,,0.00,WeatherDisplay:10.37,2013-02-01 14:18:00,
2013-02-01 08:23:00,43.8,36.4,30.32,West,268,0.0,0.0,75,0.00,CLR,,0.00,WeatherDisplay:10.37,2013-02-01 14:23:00,
2013-02-01 08:28:00,44.4,37.0,30.32,West,268,0.0,0.0,75,0.00,CLR,,0.00,WeatherDisplay:10.37,2013-02-01 14:28:00,
2013-02-01 08:33:00,45.1,37.3,30.32,West,268,0.0,0.0,74,0.00,CLR,,0.00,WeatherDisplay:10.37,2013-02-01 14:33:00,
2013-02-01 08:38:00,45.8,37.6,30.32,West,268,0.0,0.0,73,0.00,CLR,,0.00,WeatherDisplay:10.37,2013-02-01 14:38:00,
2013-02-01 08:43:00,46.8,38.2,30.32,West,268,1.2,0.0,72,0.00,CLR,,0.00,WeatherDisplay:10.37,2013-02-01 14:43:00,
2013-02-01 08:48:00,47.6,38.3,30.32,West,268,0.0,0.0,70,0.00,CLR,,0.00,WeatherDisplay:10.37,2013-02-01 14:48:00,
2013-02-01 08:53:00,48.5,38.4,30.32,West,268,3.5,3.5,68,0.00,CLR,,0.00,WeatherDisplay:10.37,2013-02-01 14:53:00,
2013-02-01 08:58:00,49.4,38.5,30.32,West,268,3.5,3.5,66,0.00,CLR,,0.00,WeatherDisplay:10.37,2013-02-01 14:58:00,
2013-02-01 09:03:00,49.9,38.2,30.33,West,273,3.5,3.5,64,0.00,CLR,,0.00,WeatherDisplay:10.37,2013-02-01 15:03:00,
2013-02-01 09:08:00,50.3,38.6,30.33,West,276,3.5,3.5,64,0.00,CLR,,0.00,WeatherDisplay:10.37,2013-02-01 15:08:00,
2013-02-01 09:13:00,50.5,38.4,30.33,West,277,1.2,0.0,63,0.00,CLR,,0.00,WeatherDisplay:10.37,2013-02-01 15:13:00,
2013-02-01 09:18:00,50.8,38.7,30.33,West,277,0.0,0.0,63,0.00,CLR,,0.00,WeatherDisplay:10.37,2013-02-01 15:18:00,
2013-02-01 09:23:00,51.1,39.3,30.33,West,277,0.0,0.0,64,0.00,CLR,,0.00,WeatherDisplay:10.37,2013-02-01 15:23:00,
2013-02-01 09:28:00,51.6,39.8,30.32,West,277,0.0,0.0,64,0.00,CLR,,0.00,WeatherDisplay:10.37,2013-02-01 15:28:00,
2013-02-01 09:33:00,52.2,41.2,30.32,West,277,2.3,2.3,66,0.00,CLR,,0.00,WeatherDisplay:10.37,2013-02-01 15:33:00,
2013-02-01 09:38:00,53.5,42.8,30.32,West,277,2.0,0.0,67,0.00,CLR,,0.00,WeatherDisplay:10.37,2013-02-01 15:38:00,
2013-02-01 09:43:00,54.9,43.7,30.32,West,277,5.8,5.8,66,0.00,CLR,,0.00,WeatherDisplay:10.37,2013-02-01 15:43:00,
2013-02-01 09:48:00,56.0,44.4,30.32,West,277,1.2,1.2,65,0.00,CLR,,0.00,WeatherDisplay:10.37,2013-02-01 15:48:00,
2013-02-01 09:53:00,57.0,44.5,30.32,West,270,5.8,5.8,63,0.00,CLR,,0.00,WeatherDisplay:10.37,2013-02-01 15:53:00,
2013-02-01 09:58:00,57.7,44.8,30.32,SW,214,5.8,5.8,62,0.00,CLR,,0.00,WeatherDisplay:10.37,2013-02-01 15:58:00,
2013-02-01 10:03:00,58.4,44.6,30.33,SW,214,5.0,5.0,60,0.00,CLR,,0.00,WeatherDisplay:10.37,2013-02-01 16:03:00,
2013-02-01 10:08:00,59.0,45.1,30.32,SSW,213,0.0,0.0,60,0.00,CLR,,0.00,WeatherDisplay:10.37,2013-02-01 16:08:00,
2013-02-01 10:13:00,59.5,44.7,30.33,SSW,200,6.9,6.9,58,0.00,CLR,,0.00,WeatherDisplay:10.37,2013-02-01 16:13:00,
2013-02-01 10:18:00,60.0,44.7,30.32,SSW,192,13.8,13.8,57,0.00,CLR,,0.00,WeatherDisplay:10.37,2013-02-01 16:18:00,
2013-02-01 10:23:00,60.6,44.8,30.32,South,178,11.5,11.5,56,0.00,CLR,,0.00,WeatherDisplay:10.37,2013-02-01 16:23:00,
2013-02-01 10:28:00,60.9,43.6,30.32,South,188,10.0,10.0,53,0.00,CLR,,0.00,WeatherDisplay:10.37,2013-02-01 16:28:00,
2013-02-01 10:33:00,60.9,44.1,30.32,SSW,199,11.5,11.5,54,0.00,CLR,,0.00,WeatherDisplay:10.37,2013-02-01 16:33:00,
2013-02-01 10:38:00,61.1,44.8,30.32,South,171,5.8,5.8,55,0.00,CLR,,0.00,WeatherDisplay:10.37,2013-02-01 16:38:00,
2013-02-01 10:43:00,61.6,44.3,30.32,SSE,161,9.2,9.2,53,0.00,CLR,,0.00,WeatherDisplay:10.37,2013-02-01 16:43:00,
2013-02-01 10:48:00,62.0,43.1,30.31,SSE,166,5.8,5.8,50,0.00,CLR,,0.00,WeatherDisplay:10.37,2013-02-01 16:48:00,
2013-02-01 10:53:00,62.4,41.9,30.31,South,180,11.5,11.5,47,0.00,CLR,,0.00,WeatherDisplay:10.37,2013-02-01 16:53:00,
2013-02-01 10:58:00,62.5,42.0,30.31,SSE,166,10.4,10.4,47,0.00,CLR,,0.00,WeatherDisplay:10.37,2013-02-01 16:58:00,
2013-02-01 11:03:00,62.8,41.1,30.31,South,171,11.5,11.5,45,0.00,CLR,,0.00,WeatherDisplay:10.37,2013-02-01 17:03:00,
2013-02-01 11:08:00,62.9,41.2,30.31,South,175,12.7,12.7,45,0.00,CLR,,0.00,WeatherDisplay:10.37,2013-02-01 17:08:00,
2013-02-01 11:13:00,63.1,42.0,30.31,South,178,13.0,13.0,46,0.00,CLR,,0.00,WeatherDisplay:10.37,2013-02-01 17:13:00,
2013-02-01 11:18:00,63.2,41.5,30.31,SSE,165,12.7,12.7,45,0.00,CLR,,0.00,WeatherDisplay:10.37,2013-02-01 17:18:00,
2013-02-01 11:23:00,63.6,41.9,30.31,South,172,12.7,12.7,45,0.00,CLR,,0.00,WeatherDisplay:10.37,2013-02-01 17:23:00,
2013-02-01 11:28:00,63.9,41.0,30.30,SSW,192,15.0,15.0,43,0.00,CLR,,0.00,WeatherDisplay:10.37,2013-02-01 17:28:00,
2013-02-01 11:33:00,64.0,41.6,30.30,South,180,11.5,11.5,44,0.00,CLR,,0.00,WeatherDisplay:10.37,2013-02-01 17:33:00,
2013-02-01 11:38:00,63.9,41.5,30.30,SSW,213,13.8,13.8,44,0.00,CLR,,0.00,WeatherDisplay:10.37,2013-02-01 17:38:00,
2013-02-01 11:43:00,64.0,41.6,30.30,SSW,195,16.1,16.1,44,0.00,CLR,,0.00,WeatherDisplay:10.37,2013-02-01 17:43:00,
2013-02-01 11:48:00,64.0,41.6,30.30,SW,236,15.0,15.0,44,0.00,CLR,,0.00,WeatherDisplay:10.37,2013-02-01 17:48:00,
2013-02-01 11:53:00,64.2,41.8,30.29,SSE,168,6.9,6.9,44,0.00,CLR,,0.00,WeatherDisplay:10.37,2013-02-01 17:53:00,
2013-02-01 11:58:00,64.4,42.0,30.29,South,187,10.4,10.4,44,0.00,CLR,,0.00,WeatherDisplay:10.37,2013-02-01 17:58:00,
2013-02-01 12:03:00,64.5,42.1,30.29,SW,226,11.0,11.0,44,0.00,CLR,,0.00,WeatherDisplay:10.37,2013-02-01 18:03:00,
2013-02-01 12:08:00,64.6,41.6,30.28,SW,215,10.4,10.4,43,0.00,CLR,,0.00,WeatherDisplay:10.37,2013-02-01 18:08:00,
2013-02-01 12:13:00,64.5,41.5,30.28,South,187,11.5,11.5,43,0.00,CLR,,0.00,WeatherDisplay:10.37,2013-02-01 18:13:00,
2013-02-01 12:18:00,64.7,41.1,30.28,SSW,195,6.9,6.9,42,0.00,CLR,,0.00,WeatherDisplay:10.37,2013-02-01 18:18:00,
2013-02-01 12:23:00,65.1,41.4,30.28,SSE,150,3.5,3.5,42,0.00,CLR,,0.00,WeatherDisplay:10.37,2013-02-01 18:23:00,
2013-02-01 12:28:00,65.6,40.6,30.27,SW,222,13.8,13.8,40,0.00,CLR,,0.00,WeatherDisplay:10.37,2013-02-01 18:28:00,
2013-02-01 12:33:00,65.6,41.3,30.27,ESE,118,11.5,11.5,41,0.00,CLR,,0.00,WeatherDisplay:10.37,2013-02-01 18:33:00,
2013-02-01 12:38:00,65.8,41.4,30.27,South,186,16.1,16.1,41,0.00,CLR,,0.00,WeatherDisplay:10.37,2013-02-01 18:38:00,
2013-02-01 12:43:00,66.0,41.0,30.26,South,190,12.7,12.7,40,0.00,CLR,,0.00,WeatherDisplay:10.37,2013-02-01 18:43:00,
2013-02-01 12:48:00,66.2,41.2,30.26,South,190,15.0,15.0,40,0.00,CLR,,0.00,WeatherDisplay:10.37,2013-02-01 18:48:00,
2013-02-01 12:53:00,66.4,39.3,30.26,South,184,7.0,7.0,37,0.00,CLR,,0.00,WeatherDisplay:10.37,2013-02-01 18:53:00,
2013-02-01 12:58:00,66.7,39.6,30.26,South,190,13.8,13.8,37,0.00,CLR,,0.00,WeatherDisplay:10.37,2013-02-01 18:58:00,
2013-02-01 13:03:00,67.0,39.1,30.25,South,182,16.1,16.1,36,0.00,CLR,,0.00,WeatherDisplay:10.37,2013-02-01 19:03:00,
2013-02-01 13:08:00,67.1,38.5,30.25,SSE,149,19.6,19.6,35,0.00,CLR,,0.00,WeatherDisplay:10.37,2013-02-01 19:08:00,
2013-02-01 13:13:00,67.0,39.1,30.25,South,184,13.8,13.8,36,0.00,CLR,,0.00,WeatherDisplay:10.37,2013-02-01 19:13:00,
2013-02-01 13:18:00,67.4,38.8,30.24,South,176,13.8,13.8,35,0.00,CLR,,0.00,WeatherDisplay:10.37,2013-02-01 19:18:00,
2013-02-01 13:23:00,67.4,38.0,30.24,SSE,163,16.1,16.1,34,0.00,CLR,,0.00,WeatherDisplay:10.37,2013-02-01 19:23:00,
2013-02-01 13:28:00,67.4,37.3,30.24,South,171,13.8,13.8,33,0.00,CLR,,0.00,WeatherDisplay:10.37,2013-02-01 19:28:00,
2013-02-01 13:33:00,67.5,36.6,30.24,SSE,157,15.0,15.0,32,0.00,CLR,,0.00,WeatherDisplay:10.37,2013-02-01 19:33:00,
2013-02-01 13:38:00,67.9,36.9,30.23,SSW,194,16.1,16.1,32,0.00,CLR,,0.00,WeatherDisplay:10.37,2013-02-01 19:38:00,
2013-02-01 13:43:00,68.0,37.0,30.23,SSE,152,6.9,6.9,32,0.00,CLR,,0.00,WeatherDisplay:10.37,2013-02-01 19:43:00,
2013-02-01 13:48:00,68.2,37.2,30.22,SSE,150,18.4,18.4,32,0.00,CLR,,0.00,WeatherDisplay:10.37,2013-02-01 19:48:00,
2013-02-01 13:53:00,68.3,37.3,30.22,South,185,16.1,16.1,32,0.00,CLR,,0.00,WeatherDisplay:10.37,2013-02-01 19:53:00,
2013-02-01 13:58:00,68.4,36.6,30.22,SSW,198,19.6,19.6,31,0.00,CLR,,0.00,WeatherDisplay:10.37,2013-02-01 19:58:00,
2013-02-01 14:03:00,68.3,37.3,30.22,South,179,15.0,15.0,32,0.00,CLR,,0.00,WeatherDisplay:10.37,2013-02-01 20:03:00,
2013-02-01 14:08:00,68.6,36.7,30.21,South,180,17.3,17.3,31,0.00,CLR,,0.00,WeatherDisplay:10.37,2013-02-01 20:08:00,
2013-02-01 14:13:00,68.8,37.7,30.21,SSE,155,11.5,11.5,32,0.00,CLR,,0.00,WeatherDisplay:10.37,2013-02-01 20:13:00,
2013-02-01 14:18:00,68.8,36.9,30.21,South,180,19.6,19.6,31,0.00,CLR,,0.00,WeatherDisplay:10.37,2013-02-01 20:18:00,
2013-02-01 14:23:00,68.7,36.8,30.21,SSE,162,11.5,11.5,31,0.00,CLR,,0.00,WeatherDisplay:10.37,2013-02-01 20:23:00,
2013-02-01 14:28:00,68.8,36.9,30.21,South,188,13.8,13.8,31,0.00,CLR,,0.00,WeatherDisplay:10.37,2013-02-01 20:28:00,
2013-02-01 14:33:00,68.9,35.3,30.20,SE,144,17.3,17.3,29,0.00,CLR,,0.00,WeatherDisplay:10.37,2013-02-01 20:33:00,
2013-02-01 14:38:00,68.9,36.2,30.20,South,191,19.6,19.6,30,0.00,CLR,,0.00,WeatherDisplay:10.37,2013-02-01 20:38:00,
2013-02-01 14:43:00,68.9,36.2,30.20,SSW,193,12.7,12.7,30,0.00,CLR,,0.00,WeatherDisplay:10.37,2013-02-01 20:43:00,
2013-02-01 14:48:00,69.1,36.3,30.20,SSE,150,10.4,10.4,30,0.00,CLR,,0.00,WeatherDisplay:10.37,2013-02-01 20:48:00,
2013-02-01 14:53:00,69.2,37.3,30.19,SSW,192,11.5,11.5,31,0.00,CLR,,0.00,WeatherDisplay:10.37,2013-02-01 20:53:00,
2013-02-01 14:58:00,69.3,36.5,30.19,SSE,167,10.4,10.4,30,0.00,CLR,,0.00,WeatherDisplay:10.37,2013-02-01 20:58:00,
2013-02-01 15:03:00,69.4,35.7,30.19,South,175,17.3,17.3,29,0.00,CLR,,0.00,WeatherDisplay:10.37,2013-02-01 21:03:00,
2013-02-01 15:08:00,69.5,36.7,30.19,South,169,15.0,15.0,30,0.00,CLR,,0.00,WeatherDisplay:10.37,2013-02-01 21:08:00,
2013-02-01 15:13:00,69.4,35.7,30.19,South,180,16.1,16.1,29,0.00,CLR,,0.00,WeatherDisplay:10.37,2013-02-01 21:13:00,
2013-02-01 15:18:00,69.6,36.8,30.19,South,169,13.0,13.0,30,0.00,CLR,,0.00,WeatherDisplay:10.37,2013-02-01 21:18:00,
2013-02-01 15:23:00,69.8,36.1,30.19,South,176,17.3,17.3,29,0.00,CLR,,0.00,WeatherDisplay:10.37,2013-02-01 21:23:00,
2013-02-01 15:28:00,69.7,36.0,30.19,SE,132,17.3,17.3,29,0.00,CLR,,0.00,WeatherDisplay:10.37,2013-02-01 21:28:00,
2013-02-01 15:33:00,69.7,36.9,30.19,South,189,11.5,11.5,30,0.00,CLR,,0.00,WeatherDisplay:10.37,2013-02-01 21:33:00,
2013-02-01 15:38:00,69.9,37.0,30.19,SSW,199,18.4,18.4,30,0.00,CLR,,0.00,WeatherDisplay:10.37,2013-02-01 21:38:00,
2013-02-01 15:43:00,69.9,36.2,30.19,SSE,167,16.0,16.0,29,0.00,CLR,,0.00,WeatherDisplay:10.37,2013-02-01 21:43:00,
2013-02-01 15:48:00,69.8,36.9,30.18,South,178,17.3,17.3,30,0.00,CLR,,0.00,WeatherDisplay:10.37,2013-02-01 21:48:00,
2013-02-01 15:53:00,69.7,36.9,30.18,South,184,16.1,16.1,30,0.00,CLR,,0.00,WeatherDisplay:10.37,2013-02-01 21:53:00,
2013-02-01 15:58:00,69.7,36.9,30.18,South,176,10.4,10.4,30,0.00,CLR,,0.00,WeatherDisplay:10.37,2013-02-01 21:58:00,
2013-02-01 16:03:00,69.8,36.9,30.18,SE,136,12.7,12.7,30,0.00,CLR,,0.00,WeatherDisplay:10.37,2013-02-01 22:03:00,
2013-02-01 16:08:00,69.9,36.2,30.18,South,176,12.7,12.7,29,0.00,CLR,,0.00,WeatherDisplay:10.37,2013-02-01 22:08:00,
2013-02-01 16:13:00,69.9,36.2,30.18,SSE,161,12.7,12.7,29,0.00,CLR,,0.00,WeatherDisplay:10.37,2013-02-01 22:13:00,
2013-02-01 16:18:00,69.8,36.1,30.18,South,178,19.6,19.6,29,0.00,CLR,,0.00,WeatherDisplay:10.37,2013-02-01 22:18:00,
2013-02-01 16:23:00,69.6,35.9,30.18,South,178,16.1,16.1,29,0.00,CLR,,0.00,WeatherDisplay:10.37,2013-02-01 22:23:00,
2013-02-01 16:28:00,69.6,35.9,30.18,South,190,17.3,17.3,29,0.00,CLR,,0.00,WeatherDisplay:10.37,2013-02-01 22:28:00,
2013-02-01 16:33:00,69.7,36.9,30.18,SSW,200,12.7,12.7,30,0.00,CLR,,0.00,WeatherDisplay:10.37,2013-02-01 22:33:00,
2013-02-01 16:38:00,69.6,36.8,30.18,South,188,11.5,11.5,30,0.00,CLR,,0.00,WeatherDisplay:10.37,2013-02-01 22:38:00,
2013-02-01 16:43:00,69.6,36.8,30.18,South,188,13.8,13.8,30,0.00,CLR,,0.00,WeatherDisplay:10.37,2013-02-01 22:43:00,
2013-02-01 16:48:00,69.5,36.7,30.17,South,178,13.8,13.8,30,0.00,CLR,,0.00,WeatherDisplay:10.37,2013-02-01 22:48:00,
2013-02-01 16:53:00,69.4,36.6,30.17,South,175,19.6,19.6,30,0.00,CLR,,0.00,WeatherDisplay:10.37,2013-02-01 22:53:00,
2013-02-01 16:58:00,69.2,36.4,30.17,SSE,155,13.8,13.8,30,0.00,CLR,,0.00,WeatherDisplay:10.37,2013-02-01 22:58:00,
2013-02-01 17:03:00,69.0,36.3,30.17,South,171,12.7,12.7,30,0.00,CLR,,0.00,WeatherDisplay:10.37,2013-02-01 23:03:00,
2013-02-01 17:08:00,69.0,36.3,30.17,South,173,11.5,11.5,30,0.00,CLR,,0.00,WeatherDisplay:10.37,2013-02-01 23:08:00,
2013-02-01 17:13:00,68.9,37.0,30.17,South,185,13.8,13.8,31,0.00,CLR,,0.00,WeatherDisplay:10.37,2013-02-01 23:13:00,
2013-02-01 17:18:00,68.8,36.9,30.17,SSE,155,14.0,14.0,31,0.00,CLR,,0.00,WeatherDisplay:10.37,2013-02-01 23:18:00,
2013-02-01 17:23:00,68.6,36.7,30.17,South,171,11.5,11.5,31,0.00,CLR,,0.00,WeatherDisplay:10.37,2013-02-01 23:23:00,
2013-02-01 17:28:00,68.5,36.7,30.17,South,175,5.8,5.8,31,0.00,CLR,,0.00,WeatherDisplay:10.37,2013-02-01 23:28:00,
2013-02-01 17:33:00,68.3,37.3,30.17,South,172,11.5,11.5,32,0.00,CLR,,0.00,WeatherDisplay:10.37,2013-02-01 23:33:00,
2013-02-01 17:38:00,68.2,37.2,30.17,SSE,168,9.2,9.2,32,0.00,CLR,,0.00,WeatherDisplay:10.37,2013-02-01 23:38:00,
2013-02-01 17:43:00,67.8,36.8,30.17,SSE,163,6.9,6.9,32,0.00,CLR,,0.00,WeatherDisplay:10.37,2013-02-01 23:43:00,
2013-02-01 17:48:00,67.5,37.4,30.17,South,171,11.5,11.5,33,0.00,CLR,,0.00,WeatherDisplay:10.37,2013-02-01 23:48:00,
2013-02-01 17:53:00,67.2,37.1,30.17,South,171,5.8,5.8,33,0.00,CLR,,0.00,WeatherDisplay:10.37,2013-02-01 23:53:00,
2013-02-01 17:58:00,66.8,36.8,30.17,SSE,155,5.8,5.8,33,0.00,CLR,,0.00,WeatherDisplay:10.37,2013-02-01 23:58:00,
2013-02-01 18:03:00,66.5,37.2,30.16,SSE,155,2.3,2.3,34,0.00,CLR,,0.00,WeatherDisplay:10.37,2013-02-02 00:03:00,
2013-02-01 18:08:00,66.2,37.0,30.16,SSE,156,3.5,3.5,34,0.00,CLR,,0.00,WeatherDisplay:10.37,2013-02-02 00:08:00,
2013-02-01 18:13:00,65.8,36.6,30.16,SSE,158,4.6,4.6,34,0.00,CLR,,0.00,WeatherDisplay:10.37,2013-02-02 00:13:00,
2013-02-01 18:18:00,65.4,37.0,30.16,SSE,157,3.5,3.5,35,0.00,CLR,,0.00,WeatherDisplay:10.37,2013-02-02 00:18:00,
2013-02-01 18:23:00,65.0,36.7,30.16,SSE,157,3.5,3.5,35,0.00,CLR,,0.00,WeatherDisplay:10.37,2013-02-02 00:23:00,
2013-02-01 18:28:00,64.7,36.4,30.16,SSE,159,5.8,5.8,35,0.00,CLR,,0.00,WeatherDisplay:10.37,2013-02-02 00:28:00,
2013-02-01 18:33:00,64.3,36.8,30.16,SSE,159,3.5,3.5,36,0.00,CLR,,0.00,WeatherDisplay:10.37,2013-02-02 00:33:00,
2013-02-01 18:38:00,64.0,36.5,30.16,SSE,157,3.5,3.5,36,0.00,CLR,,0.00,WeatherDisplay:10.37,2013-02-02 00:38:00,
2013-02-01 18:43:00,63.6,36.8,30.16,SSE,148,4.6,4.6,37,0.00,CLR,,0.00,WeatherDisplay:10.37,2013-02-02 00:43:00,
2013-02-01 18:48:00,63.2,36.5,30.17,SE,145,5.8,5.8,37,0.00,CLR,,0.00,WeatherDisplay:10.37,2013-02-02 00:48:00,
2013-02-01 18:53:00,62.9,36.2,30.17,SE,140,3.5,3.5,37,0.00,CLR,,0.00,WeatherDisplay:10.37,2013-02-02 00:53:00,
2013-02-01 18:58:00,62.7,36.0,30.17,SSE,147,4.6,4.6,37,0.00,CLR,,0.00,WeatherDisplay:10.37,2013-02-02 00:58:00,
2013-02-01 19:03:00,62.5,35.9,30.17,SSE,151,10.4,10.4,37,0.00,CLR,,0.00,WeatherDisplay:10.37,2013-02-02 01:03:00,
2013-02-01 19:08:00,62.4,35.8,30.17,SSE,152,6.9,6.9,37,0.00,CLR,,0.00,WeatherDisplay:10.37,2013-02-02 01:08:00,
2013-02-01 19:13:00,62.3,35.7,30.17,SSE,149,6.9,6.9,37,0.00,CLR,,0.00,WeatherDisplay:10.37,2013-02-02 01:13:00,
2013-02-01 19:18:00,62.3,35.7,30.17,SSE,155,9.2,9.2,37,0.00,CLR,,0.00,WeatherDisplay:10.37,2013-02-02 01:18:00,
2013-02-01 19:23:00,62.3,35.7,30.17,SSE,155,10.4,10.4,37,0.00,CLR,,0.00,WeatherDisplay:10.37,2013-02-02 01:23:00,
2013-02-01 19:28:00,62.1,35.5,30.17,SE,142,10.4,10.4,37,0.00,CLR,,0.00,WeatherDisplay:10.37,2013-02-02 01:28:00,
2013-02-01 19:33:00,61.9,35.3,30.17,SSE,148,11.5,11.5,37,0.00,CLR,,0.00,WeatherDisplay:10.37,2013-02-02 01:33:00,
2013-02-01 19:38:00,61.7,35.1,30.17,SSE,156,10.0,10.0,37,0.00,CLR,,0.00,WeatherDisplay:10.37,2013-02-02 01:38:00,
2013-02-01 19:43:00,61.5,35.6,30.18,SSE,153,11.5,11.5,38,0.00,CLR,,0.00,WeatherDisplay:10.37,2013-02-02 01:43:00,
2013-02-01 19:48:00,61.3,35.5,30.18,SE,142,11.5,11.5,38,0.00,CLR,,0.00,WeatherDisplay:10.37,2013-02-02 01:48:00,
2013-02-01 19:53:00,61.1,35.3,30.18,SSE,149,13.8,13.8,38,0.00,CLR,,0.00,WeatherDisplay:10.37,2013-02-02 01:53:00,
2013-02-01 19:58:00,60.9,35.8,30.18,SSE,153,10.4,10.4,39,0.00,CLR,,0.00,WeatherDisplay:10.37,2013-02-02 01:58:00,
2013-02-01 20:03:00,60.6,35.5,30.18,SSE,149,11.5,11.5,39,0.00,CLR,,0.00,WeatherDisplay:10.37,2013-02-02 02:03:00,
2013-02-01 20:08:00,60.3,35.9,30.18,SE,146,10.4,10.4,40,0.00,CLR,,0.00,WeatherDisplay:10.37,2013-02-02 02:08:00,
2013-02-01 20:13:00,60.0,35.6,30.18,SSE,153,10.4,10.4,40,0.00,CLR,,0.00,WeatherDisplay:10.37,2013-02-02 02:13:00,
2013-02-01 20:18:00,59.7,35.3,30.18,SSE,160,11.5,11.5,40,0.00,CLR,,0.00,WeatherDisplay:10.37,2013-02-02 02:18:00,
2013-02-01 20:23:00,59.4,35.7,30.19,SE,144,9.2,9.2,41,0.00,CLR,,0.00,WeatherDisplay:10.37,2013-02-02 02:23:00,
2013-02-01 20:28:00,59.4,35.7,30.18,SE,145,6.9,6.9,41,0.00,CLR,,0.00,WeatherDisplay:10.37,2013-02-02 02:28:00,
2013-02-01 20:33:00,59.1,36.0,30.19,SE,146,4.6,4.6,42,0.00,CLR,,0.00,WeatherDisplay:10.37,2013-02-02 02:33:00,
2013-02-01 20:38:00,58.7,35.7,30.19,SE,146,6.9,6.9,42,0.00,CLR,,0.00,WeatherDisplay:10.37,2013-02-02 02:38:00,
2013-02-01 20:43:00,58.4,35.4,30.19,SSE,148,3.5,3.5,42,0.00,CLR,,0.00,WeatherDisplay:10.37,2013-02-02 02:43:00,
2013-02-01 20:48:00,58.1,35.7,30.19,SSE,148,6.9,6.9,43,0.00,CLR,,0.00,WeatherDisplay:10.37,2013-02-02 02:48:00,
2013-02-01 20:53:00,57.8,35.4,30.19,SSE,149,4.6,4.6,43,0.00,CLR,,0.00,WeatherDisplay:10.37,2013-02-02 02:53:00,
2013-02-01 20:58:00,57.6,35.8,30.19,SSE,153,3.5,3.5,44,0.00,CLR,,0.00,WeatherDisplay:10.37,2013-02-02 02:58:00,
2013-02-01 21:03:00,57.5,36.3,30.20,SSE,152,5.8,5.8,45,0.00,CLR,,0.00,WeatherDisplay:10.37,2013-02-02 03:03:00,
2013-02-01 21:08:00,57.3,36.1,30.20,SSE,152,4.6,4.6,45,0.00,CLR,,0.00,WeatherDisplay:10.37,2013-02-02 03:08:00,
2013-02-01 21:13:00,57.1,36.5,30.20,SSE,152,6.0,6.0,46,0.00,CLR,,0.00,WeatherDisplay:10.37,2013-02-02 03:13:00,
2013-02-01 21:18:00,57.0,37.0,30.21,SSE,150,5.8,5.8,47,0.00,CLR,,0.00,WeatherDisplay:10.37,2013-02-02 03:18:00,
2013-02-01 21:23:00,56.9,37.4,30.21,SSE,150,4.6,4.6,48,0.00,CLR,,0.00,WeatherDisplay:10.37,2013-02-02 03:23:00,
2013-02-01 21:28:00,56.7,37.2,30.21,SSE,150,3.5,3.5,48,0.00,CLR,,0.00,WeatherDisplay:10.37,2013-02-02 03:28:00,
2013-02-01 21:33:00,56.5,37.0,30.21,SSE,151,3.5,3.5,48,0.00,CLR,,0.00,WeatherDisplay:10.37,2013-02-02 03:33:00,
2013-02-01 21:38:00,56.3,37.4,30.21,SSE,151,3.5,3.5,49,0.00,CLR,,0.00,WeatherDisplay:10.37,2013-02-02 03:38:00,
2013-02-01 21:43:00,56.1,37.2,30.21,SSE,150,3.5,3.5,49,0.00,CLR,,0.00,WeatherDisplay:10.37,2013-02-02 03:43:00,
2013-02-01 21:48:00,55.9,37.5,30.21,SSE,150,3.5,3.5,50,0.00,CLR,,0.00,WeatherDisplay:10.37,2013-02-02 03:48:00,
2013-02-01 21:53:00,55.7,37.8,30.21,SSE,151,6.9,6.9,51,0.00,CLR,,0.00,WeatherDisplay:10.37,2013-02-02 03:53:00,
2013-02-01 21:58:00,55.4,37.6,30.21,SSE,151,3.5,3.5,51,0.00,CLR,,0.00,WeatherDisplay:10.37,2013-02-02 03:58:00,
2013-02-01 22:03:00,55.2,37.9,30.21,SSE,151,2.3,2.3,52,0.00,CLR,,0.00,WeatherDisplay:10.37,2013-02-02 04:03:00,
2013-02-01 22:08:00,55.0,38.2,30.21,SSE,150,2.3,2.3,53,0.00,CLR,,0.00,WeatherDisplay:10.37,2013-02-02 04:08:00,
2013-02-01 22:13:00,54.8,38.0,30.21,SSE,151,3.5,3.5,53,0.00,CLR,,0.00,WeatherDisplay:10.37,2013-02-02 04:13:00,
2013-02-01 22:18:00,54.6,38.3,30.21,SSE,151,2.3,2.3,54,0.00,CLR,,0.00,WeatherDisplay:10.37,2013-02-02 04:18:00,
2013-02-01 22:23:00,54.5,38.7,30.21,SSE,151,3.5,3.5,55,0.00,CLR,,0.00,WeatherDisplay:10.37,2013-02-02 04:23:00,
2013-02-01 22:28:00,54.3,38.9,30.21,SSE,152,3.5,3.5,56,0.00,CLR,,0.00,WeatherDisplay:10.37,2013-02-02 04:28:00,
2013-02-01 22:33:00,54.1,39.2,30.21,SSE,152,3.5,3.5,57,0.00,CLR,,0.00,WeatherDisplay:10.37,2013-02-02 04:33:00,
2013-02-01 22:38:00,54.0,39.5,30.21,SSE,152,2.3,2.3,58,0.00,CLR,,0.00,WeatherDisplay:10.37,2013-02-02 04:38:00,
2013-02-01 22:43:00,53.9,39.5,30.21,SSE,152,2.3,2.3,58,0.00,CLR,,0.00,WeatherDisplay:10.37,2013-02-02 04:43:00,
2013-02-01 22:48:00,53.8,39.8,30.22,SSE,152,0.0,0.0,59,0.00,CLR,,0.00,WeatherDisplay:10.37,2013-02-02 04:48:00,
2013-02-01 22:53:00,53.7,39.7,30.22,SSE,152,0.0,0.0,59,0.00,CLR,,0.00,WeatherDisplay:10.37,2013-02-02 04:53:00,
2013-02-01 22:58:00,53.6,40.0,30.22,SSE,152,0.0,0.0,60,0.00,CLR,,0.00,WeatherDisplay:10.37,2013-02-02 04:58:00,
2013-02-01 23:00:00,53.6,40.0,30.22,SSE,152,0.0,0.0,60,0.00,CLR,,0.00,WeatherDisplay:10.37,2013-02-02 05:00:00,
2013-02-01 23:01:00,53.6,40.0,30.21,SSE,152,0.0,0.0,60,0.00,CLR,,0.00,WeatherDisplay:10.37,2013-02-02 05:01:00,
2013-02-01 23:06:00,53.4,39.9,30.21,SSE,152,0.0,0.0,60,0.00,CLR,,0.00,WeatherDisplay:10.37,2013-02-02 05:06:00,
2013-02-01 23:11:00,53.3,39.8,30.21,SSE,152,0.0,0.0,60,0.00,CLR,,0.00,WeatherDisplay:10.37,2013-02-02 05:11:00,
2013-02-01 23:16:00,53.1,40.0,30.21,SSE,152,0.0,0.0,61,0.00,CLR,,0.00,WeatherDisplay:10.37,2013-02-02 05:16:00,
2013-02-01 23:21:00,52.9,39.8,30.20,SSE,152,0.0,0.0,61,0.00,CLR,,0.00,WeatherDisplay:10.37,2013-02-02 05:21:00,
2013-02-01 23:26:00,52.7,40.0,30.20,SSE,152,1.2,1.2,62,0.00,CLR,,0.00,WeatherDisplay:10.37,2013-02-02 05:26:00,
2013-02-01 23:31:00,52.5,40.3,30.20,SSE,152,1.2,1.2,63,0.00,CLR,,0.00,WeatherDisplay:10.37,2013-02-02 05:31:00,
2013-02-01 23:36:00,52.3,40.1,30.20,SSE,152,1.2,1.2,63,0.00,CLR,,0.00,WeatherDisplay:10.37,2013-02-02 05:36:00,
2013-02-01 23:41:00,52.1,40.3,30.20,SSE,152,0.0,0.0,64,0.00,CLR,,0.00,WeatherDisplay:10.37,2013-02-02 05:41:00,
2013-02-01 23:46:00,51.9,40.5,30.20,SSE,152,0.0,0.0,65,0.00,CLR,,0.00,WeatherDisplay:10.37,2013-02-02 05:46:00,
2013-02-01 23:51:00,51.9,40.9,30.20,SSE,152,0.0,0.0,66,0.00,CLR,,0.00,WeatherDisplay:10.37,2013-02-02 05:51:00,
2013-02-01 23:56:00,51.8,40.8,30.20,SSE,152,0.0,0.0,66,0.00,CLR,,0.00,WeatherDisplay:10.37,2013-02-02 05:56:00,